KB3YCK-2 Weather Reports


Display with metric or nautical units.
time (UTC)temp
F
wind
direction
speed
MPH
gust
MPH
rain 1hr
in
rain 24hr
in
rain mn
in
humidity
%
barometer
mb
20260504231509 69 227 0.0 8.0 0.00 0.00 0.00 60 1010.3
20260504231003 70 51 1.0 11.0 0.00 0.00 0.00 60 1010.3
20260504230503 70 334 2.0 11.0 0.00 0.00 0.00 59 1010.3
20260504230006 70 93 1.0 10.0 0.00 0.00 0.00 58 1010.3
20260504225505 71 265 2.0 11.0 0.00 0.00 0.00 59 1010.3
20260504225003 71 9 4.0 11.0 0.00 0.00 0.00 58 1010.2
20260504224510 71 325 2.0 11.0 0.00 0.00 0.00 59 1010.2
20260504224004 71 190 3.0 11.0 0.00 0.00 0.00 59 1010.2
20260504223504 71 178 2.0 11.0 0.00 0.00 0.00 58 1010.2
20260504223003 71 93 2.0 8.0 0.00 0.00 0.00 59 1010.2
20260504222504 71 265 1.0 17.0 0.00 0.00 0.00 59 1010.2
20260504222005 71 360 3.0 17.0 0.00 0.00 0.00 57 1010.2
20260504221504 71 275 1.0 12.0 0.00 0.00 0.00 58 1010.2
20260504221006 71 296 3.0 12.0 0.00 0.00 0.00 57 1010.2
20260504220511 72 68 4.0 12.0 0.00 0.00 0.00 57 1010.2
20260504220016 72 265 3.0 16.0 0.00 0.00 0.00 58 1010.1
20260504215505 72 150 2.0 16.0 0.00 0.00 0.00 58 1010.2
20260504215004 72 246 4.0 13.0 0.00 0.00 0.00 57 1010.3
20260504214510 72 132 4.0 14.0 0.00 0.00 0.00 56 1010.4
20260504214007 72 105 4.0 14.0 0.00 0.00 0.00 56 1010.3
20260504213503 72 232 3.0 13.0 0.00 0.00 0.00 57 1010.4
20260504212509 72 257 2.0 19.0 0.00 0.00 0.00 57 1010.3
20260504212004 73 298 4.0 19.0 0.00 0.00 0.00 55 1010.3
20260504211503 73 255 5.0 19.0 0.00 0.00 0.00 55 1010.4
20260504211007 72 158 4.0 17.0 0.00 0.00 0.00 57 1010.4
20260504210507 72 174 5.0 15.0 0.00 0.00 0.00 56 1010.3
20260504210003 72 148 5.0 16.0 0.00 0.00 0.00 56 1010.3
20260504205504 73 291 3.0 16.0 0.00 0.00 0.00 56 1010.4
20260504205003 73 313 5.0 15.0 0.00 0.00 0.00 56 1010.3
20260504204524 73 93 2.0 13.0 0.00 0.00 0.00 55 1010.3
20260504204004 73 314 4.0 15.0 0.00 0.00 0.00 58 1010.4
20260504203504 73 111 4.0 15.0 0.00 0.00 0.00 56 1010.3
20260504203012 73 261 4.0 11.0 0.00 0.00 0.00 58 1010.4
20260504202509 72 275 3.0 15.0 0.00 0.00 0.00 60 1010.5
20260504202003 72 183 4.0 16.0 0.00 0.00 0.00 56 1010.5
20260504201508 72 271 6.0 17.0 0.00 0.00 0.00 58 1010.8
20260504201008 72 221 5.0 17.0 0.00 0.00 0.00 59 1010.8
20260504200504 72 249 7.0 11.0 0.00 0.00 0.00 59 1011.1
20260504200007 72 146 7.0 15.0 0.00 0.00 0.00 59 1011.0
20260504195507 72 243 4.0 17.0 0.00 0.00 0.00 57 1011.0
20260504195008 72 275 6.0 17.0 0.00 0.00 0.00 56 1011.2
20260504194504 72 68 4.0 12.0 0.00 0.00 0.00 60 1011.2
20260504194005 72 360 3.0 12.0 0.00 0.00 0.00 60 1011.4
20260504193506 71 101 4.0 12.0 0.00 0.00 0.00 58 1011.4
20260504193026 71 221 3.0 12.0 0.00 0.00 0.00 57 1011.5
20260504192506 71 133 4.0 19.0 0.00 0.00 0.00 58 1011.5
20260504192010 71 201 7.0 19.0 0.00 0.00 0.00 58 1011.6
20260504191527 71 254 5.0 15.0 0.00 0.00 0.00 57 1011.7
20260504191002 72 225 4.0 16.0 0.00 0.00 0.00 62 1011.8
20260504190503 71 57 3.0 16.0 0.00 0.00 0.00 60 1011.8
20260504190011 71 117 3.0 17.0 0.00 0.00 0.00 63 1011.8
20260504185510 71 150 3.0 17.0 0.00 0.00 0.00 60 1011.8
20260504185003 71 186 4.0 18.0 0.00 0.00 0.00 59 1011.8
20260504184509 71 160 7.0 18.0 0.00 0.00 0.00 58 1011.9
20260504184011 71 137 3.0 15.0 0.00 0.00 0.00 59 1011.9
20260504183511 71 210 3.0 12.0 0.00 0.00 0.00 60 1011.9
20260504183008 71 153 3.0 13.0 0.00 0.00 0.00 60 1011.9
20260504182508 71 185 4.0 13.0 0.00 0.00 0.00 59 1011.9
20260504182011 71 265 5.0 13.0 0.00 0.00 0.00 59 1012.1
20260504181508 71 51 2.0 14.0 0.00 0.00 0.00 61 1012.3
20260504181001 71 265 5.0 14.0 0.00 0.00 0.00 57 1012.2
20260504180503 71 330 3.0 12.0 0.00 0.00 0.00 59 1012.4
20260504180008 71 214 4.0 12.0 0.00 0.00 0.00 62 1012.5
20260504175504 71 250 2.0 17.0 0.00 0.00 0.00 64 1012.6
20260504175005 70 259 4.0 17.0 0.00 0.00 0.00 65 1012.5
20260504174508 70 239 2.0 12.0 0.00 0.00 0.00 61 1012.7
20260504174006 70 248 3.0 12.0 0.00 0.00 0.00 60 1012.8
20260504173509 69 293 3.0 15.0 0.00 0.00 0.00 68 1012.8
20260504173005 69 254 5.0 16.0 0.00 0.00 0.00 60 1012.9
20260504172502 70 265 4.0 16.0 0.00 0.00 0.00 63 1013.0
20260504172010 69 266 2.0 15.0 0.00 0.00 0.00 63 1012.9
20260504171501 69 254 4.0 15.0 0.00 0.00 0.00 59 1013.0
20260504171003 69 178 4.0 15.0 0.00 0.00 0.00 63 1013.2
20260504170503 69 120 5.0 15.0 0.00 0.00 0.00 63 1013.3
20260504151013 65 305 6.0 14.0 0.00 0.00 0.00 63 1014.3
20260504150503 65 312 4.0 17.0 0.00 0.00 0.00 65 1014.3
20260504141010 62 265 4.0 14.0 0.00 0.00 0.00 73 1014.5
20260504140510 61 265 5.0 14.0 0.00 0.00 0.00 72 1014.5
20260504130512 54 257 3.0 10.0 0.00 0.00 0.00 81 1014.9
20260504110503 39 9 0.0 1.0 0.00 0.00 0.00 88 1015.0
20260504100503 40 51 0.0 1.0 0.00 0.00 0.00 86 1015.3
20260504081005 40 9 0.0 3.0 0.00 0.00 0.00 83 1015.4
20260504080502 40 9 0.0 4.0 0.00 0.00 0.00 83 1015.3
20260504050510 44 51 0.0 3.0 0.00 0.00 0.00 75 1015.4
20260504050010 44 250 1.0 3.0 0.00 0.00 0.00 75 1015.3
20260504045507 44 265 0.0 3.0 0.00 0.00 0.00 75 1015.4
20260504045009 44 250 1.0 3.0 0.00 0.00 0.00 75 1015.4
20260504041002 44 265 0.0 3.0 0.00 0.00 0.00 75 1015.0
20260504040504 44 265 0.0 3.0 0.00 0.00 0.00 75 1015.0
20260504040003 44 325 1.0 3.0 0.00 0.00 0.00 75 1015.0
20260504035503 44 254 1.0 3.0 0.00 0.00 0.00 75 1015.0
20260504035003 43 309 1.0 3.0 0.00 0.00 0.00 76 1015.0
20260504034502 43 254 1.0 2.0 0.00 0.00 0.00 76 1015.0
20260504034002 43 279 0.0 2.0 0.00 0.00 0.00 76 1014.9
20260504033502 43 254 0.0 2.0 0.00 0.00 0.00 76 1014.9
20260504033003 43 265 1.0 2.0 0.00 0.00 0.00 77 1014.8
20260504032503 43 298 0.0 2.0 0.00 0.00 0.00 77 1014.7
20260504032002 43 265 0.0 2.0 0.00 0.00 0.00 77 1014.8
20260504031501 43 309 1.0 2.0 0.00 0.00 0.00 76 1014.8
20260504031004 43 265 1.0 2.0 0.00 0.00 0.00 76 1014.7
20260504030507 43 292 0.0 2.0 0.00 0.00 0.00 76 1014.7
20260504030003 43 265 0.0 1.0 0.00 0.00 0.00 75 1014.7
20260504025504 44 178 0.0 1.0 0.00 0.00 0.00 75 1014.6
20260504025002 44 93 0.0 1.0 0.00 0.00 0.00 75 1014.6
20260504024503 44 309 0.0 1.0 0.00 0.00 0.00 75 1014.7
20260504024008 44 265 0.0 1.0 0.00 0.00 0.00 74 1014.6
20260504023503 45 51 0.0 1.0 0.00 0.00 0.00 75 1014.7
20260504023003 45 51 0.0 1.0 0.00 0.00 0.00 74 1014.7
20260504022502 45 51 0.0 1.0 0.00 0.00 0.00 74 1014.7
20260504022002 45 9 0.0 1.0 0.00 0.00 0.00 73 1014.7
20260504021503 46 51 0.0 1.0 0.00 0.00 0.00 73 1014.7
20260504021001 46 9 0.0 1.0 0.00 0.00 0.00 73 1014.7
20260504020501 46 51 0.0 2.0 0.00 0.00 0.00 73 1014.8
20260504020002 46 265 0.0 2.0 0.00 0.00 0.00 73 1014.7
20260504015503 47 325 0.0 2.0 0.00 0.00 0.00 72 1014.8
20260504015004 47 51 0.0 1.0 0.00 0.00 0.00 71 1014.7
20260504014505 47 309 0.0 2.0 0.00 0.00 0.00 71 1014.7
20260504014004 48 9 0.0 2.0 0.00 0.00 0.00 70 1014.6
20260504013502 48 9 0.0 1.0 0.00 0.00 0.00 70 1014.6
20260504013004 48 51 0.0 1.0 0.00 0.00 0.00 70 1014.6
20260504012502 49 34 0.0 1.0 0.00 0.00 0.00 69 1014.6
20260504012003 49 93 0.0 2.0 0.00 0.00 0.00 69 1014.5
20260504011510 49 265 0.0 2.0 0.00 0.00 0.00 69 1014.5
20260504011001 50 265 0.0 2.0 0.00 0.00 0.00 68 1014.4
20260504010503 50 309 0.0 2.0 0.00 0.00 0.00 68 1014.4
20260504010003 51 265 0.0 2.0 0.00 0.00 0.00 67 1014.4
20260504005503 51 338 0.0 2.0 0.00 0.00 0.00 67 1014.3
20260504005004 51 265 1.0 2.0 0.00 0.00 0.00 66 1014.2
20260504004503 52 265 1.0 2.0 0.00 0.00 0.00 65 1014.2
20260504004008 52 265 0.0 2.0 0.00 0.00 0.00 64 1014.2
20260504003506 53 265 0.0 2.0 0.00 0.00 0.00 63 1014.2
20260504003006 53 93 0.0 2.0 0.00 0.00 0.00 63 1014.1
20260504002502 54 292 0.0 2.0 0.00 0.00 0.00 63 1014.0
20260504002009 54 265 0.0 2.0 0.00 0.00 0.00 60 1013.9
20260504001504 54 321 0.0 2.0 0.00 0.00 0.00 60 1013.9
20260504001002 55 282 0.0 2.0 0.00 0.00 0.00 59 1013.8
20260504000502 55 282 0.0 2.0 0.00 0.00 0.00 59 1013.8
20260504000004 55 247 0.0 2.0 0.00 0.00 0.00 58 1013.7
20260503235502 56 265 0.0 3.0 0.00 0.00 0.00 57 1013.7
20260503235003 56 137 0.0 4.0 0.00 0.00 0.00 55 1013.6
20260503234505 56 221 0.0 5.0 0.00 0.00 0.00 55 1013.6
20260503234009 56 9 1.0 7.0 0.00 0.00 0.00 56 1013.5
20260503233503 56 120 2.0 7.0 0.00 0.00 0.00 57 1013.4
20260503233003 57 265 1.0 7.0 0.00 0.00 0.00 55 1013.5
20260503232505 57 265 2.0 8.0 0.00 0.00 0.00 56 1013.5
20260503232003 57 217 2.0 8.0 0.00 0.00 0.00 55 1013.5